Location: Albany
(35.0000°S, 118.0000°E)
Time: 01:31:50
(UTC-04:00)

Transit 2A - Visible Passes

Search period start: 23 August 2014 00:00
Search period end: 02 September 2014 00:00
Orbit: 602 x 961 km, 66.7° (Epoch: 22 August)

Date Brightness Start Highest point End Pass type
(mag) Time Alt. Az. Time Alt. Az. Time Alt. Az.
23 Aug 6.7 17:25:27 10° NNW 17:31:32 75° ENE 17:37:57 10° SSE visible
24 Aug 7.2 16:52:13 10° N 16:58:07 53° ENE 17:04:19 10° SE visible
25 Aug 7.8 16:19:15 10° N 16:24:46 37° ENE 16:30:32 10° SE visible
25 Aug 7.1 18:02:23 10° WNW 18:08:02 36° SW 18:13:53 10° S visible
26 Aug 8.3 15:46:58 12° NNE 15:51:28 25° ENE 15:56:31 10° SE visible
26 Aug 6.7 17:28:25 10° NW 17:34:24 49° WSW 17:40:37 10° SSE visible
27 Aug 8.7 15:16:03 15° NE 15:18:13 17° ENE 15:22:08 10° ESE visible
27 Aug 6.4 16:56:41 22° NW 17:00:49 69° WSW 17:07:15 10° SSE visible
28 Aug 9.1 14:44:44 11° ENE 14:45:01 11° E 14:46:37 10° E visible
28 Aug 6.4 16:25:21 47° NNW 16:27:19 85° ENE 16:33:46 10° SSE visible
28 Aug 7.9 18:07:22 10° W 18:11:26 18° SW 18:15:33 10° S visible
29 Aug 6.8 15:53:45 61° ENE 15:53:52 61° ENE 16:00:11 10° SE visible
29 Aug 7.6 17:34:21 16° W 17:37:38 24° SW 17:42:39 10° S visible
30 Aug 7.7 15:21:57 37° ESE 15:21:57 37° ESE 15:26:27 10° SE visible
30 Aug 7.2 17:02:32 29° WSW 17:03:53 32° SW 17:09:33 10° S visible
31 Aug 8.6 14:50:00 21° ESE 14:50:00 21° ESE 14:52:32 10° SE visible
31 Aug 6.9 16:30:34 43° SW 16:30:34 43° SW 16:36:19 10° SSE visible
01 Sep 9.2 14:17:54 11° ESE 14:17:54 11° ESE 14:18:20 10° ESE visible
01 Sep 7.1 15:58:28 44° S 15:58:28 44° S 16:02:59 10° SSE visible
01 Sep 8.3 17:39:19 10° WSW 17:41:15 11° SW 17:43:10 10° SSW visible
